Miscellaneous Local Product
Issued by NWS North Platte, NE

Home | Current Version | Previous Version | Graphics & Text | Print | Product List | Glossary On
Versions: 1 2 3 4 5 6 7 8 9 10 11 12 13 14 15 16 17 18 19 20 21 22 23 24 25 26 27 28 29 30 31 32 33 34 35 36 37 38 39 40 41 42 43 44 45 46 47 48 49 50
395
AXUS43 KLBF 232110
MISLBF


WESTERN AND NORTH CENTRAL NEBRASKA HOURLY WEATHER ROUNDUP
NATIONAL WEATHER SERVICE NORTH PLATTE NE
400 PM CDT SUN APR 23 2017

NOTE: "FAIR" INDICATES FEW OR NO CLOUDS BELOW 12,000 FEET WITH NO
SIGNIFICANT WEATHER AND/OR OBSTRUCTIONS TO VISIBILITY.

NOTE: STATIONS NOT REPORTING VARIABLES SUCH AS SKY/WEATHER OR
PRESSURE ARE PROVIDED BY RAWS AND APRS NETWORKS AND ARE NOT UNDER
NATIONAL WEATHER SERVICE QUALITY CONTROL.

...OBSERVATIONS IN AND NEAR THE EASTERN PANHANDLE OF NEBRASKA...

CITY           SKY/WX    TMP DP  RH WIND       PRES   REMARKS
PINE RIDGE     CLOUDY    76  34  21 W13       29.72F
CHADRON        CLOUDY    75  32  20 SW12      29.70F
ALLIANCE       CLOUDY    70  32  24 S20       29.76F
SIDNEY         CLOUDY    66  42  41 S17G24    29.80F
CRESCENT LAKE    N/A     70  37  29 S16G28      N/A
$$

...OBSERVATIONS IN NORTHERN NEBRASKA AND FAR SOUTHERN SOUTH DAKOTA...

CITY           SKY/WX    TMP DP  RH WIND       PRES   REMARKS
WINNER         FAIR      75  31  19 S32G43    29.75F
VALENTINE      MOSUNNY   75  29  18 S26G33    29.76F
THEDFORD       CLOUDY    71  29  21 S24G35    29.83F
AINSWORTH      SUNNY     70  31  23 S26G37    29.80F
O`NEILL        PTSUNNY   72  17  12 SW28G38   29.85F
ORD            SUNNY     70  23  17 S29G39    29.88F
BROKEN BOW     SUNNY     71  24  17 S35G45    29.87F
VALENTINE NWR    N/A     70  27  20 S23G33      N/A
HALSEY           N/A     69  24  18 S14G26      N/A
BUTTE            N/A     71  31  22 E25G40      N/A
CHAMBERS         N/A     71  31  22 S10         N/A
EWING            N/A     72  29  20 S24G32      N/A
$$

...OBSERVATIONS IN SOUTHWEST NEBRASKA AND FAR NORTHEAST COLORADO...

CITY           SKY/WX    TMP DP  RH WIND       PRES   REMARKS
HOLYOKE        FAIR      72  39  30 S22G29    29.83F
IMPERIAL       CLOUDY    68  38  33 S26G40    29.84F
OGALLALA       MOSUNNY   70  37  29 SW21G26   29.83F
NORTH PLATTE   PTSUNNY   70  33  25 S21G37    29.85F
MCCOOK         CLOUDY    71  36  27 S23G41    29.87F
LEXINGTON      CLOUDY    70  21  16 S30G36    29.90F
STAPLETON        N/A     71  33  25 SW3G12      N/A
GOTHENBURG       N/A     67  26  21 S15         N/A
CALLAWAY         N/A     68  29  23 S31         N/A
$$

...OBSERVATIONS IN CENTRAL LINCOLN COUNTY AREA...

CITY           SKY/WX    TMP DP  RH WIND       PRES   REMARKS
N.P. AIRPORT   PTSUNNY   70  33  25 S21G37    29.85F
N.P. DOWNTOWN    N/A     68  36  30 S13G26      N/A
N.P. HILLCREST   N/A     68  35  29 S21G30      N/A
$$

...SOME OBSERVATIONS FROM AROUND THE REGION...

CITY           SKY/WX    TMP DP  RH WIND       PRES   REMARKS
DENVER         CLOUDY    74  20  13 SE12G22   29.79F
LIMON          CLOUDY    64  37  36 S20G26    29.88F
ASPEN          CLOUDY    67  18  15 S20G29    29.94F
LARAMIE        CLOUDY    65  18  16 SW20G28   29.85F
CASPER         SUNNY     71  25  17 SW18      29.72F
CHEYENNE       CLOUDY    65  31  28 S12G21    29.83F
SCOTTSBLUFF    CLOUDY    76  31  19 SE14      29.74F
GRAND ISLAND   SUNNY     71  25  17 S21G35    29.96F
OMAHA          PTSUNNY   73  28  18 S15       29.98F
SIOUX FALLS    CLOUDY    69  37  30 S22G31    29.87F
PIERRE         SUNNY     76  36  23 S16G26    29.68F
RAPID CITY     SUNNY     69  41  36 N8        29.71F
BISMARCK       CLOUDY    40  34  79 E22       29.92F WCI  30
KANSAS CITY    MOSUNNY   71  33  24 VRB3      30.08F
HILL CITY      MOSUNNY   72  28  19 S25G32    29.96F
WICHITA        MOSUNNY   66  36  32 SE3       30.10F
DODGE CITY     SUNNY     68  32  26 S22G30    30.02F
OKLAHOMA CITY  PTSUNNY   69  36  29 N5        30.10F
DALLAS         MOSUNNY   74  41  30 N13G18    30.05F
AMARILLO       SUNNY     71  35  26 S17G24    30.06F
$$




USA.gov is the U.S. government's official web portal to all federal, state and local government web resources and services.